0 HST 1 20580U 90037B 26106.19306363 .00003779 00000-0 11863-3 0 9998 2 20580 28.4727 144.0470 0002169 170.6589 189.4047 15.30057090779063 0 ISS (ZARYA) 1 25544U 98067A 26105.87667374 .00005471 00000-0 10765-3 0 9991 2 25544 51.6326 248.4785 0006599 317.1782 42.8691 15.48928061562097 0 CXO 1 25867U 99040B 26108.55302551 .00000845 00000-0 00000-0 0 9990 2 25867 55.2416 118.3602 7940395 310.5754 0.2310 0.37809990 17094